Regional Weather Roundup
Issued by NWS

Home | Current Version | Previous Version | Graphics & Text | Print | Product List | Glossary On
Versions: 1 2 3 4 5 6 7 8 9 10 11 12 13 14 15 16 17 18 19 20 21 22 23 24 25 26 27 28 29 30 31 32 33 34 35 36 37 38 39 40 41 42 43 44 45 46 47 48 49 50
000
ASUS43 KIND 191309
RWRIN

WEATHER ROUNDUP FOR INDIANA
NATIONAL WEATHER SERVICE INDIANAPOLIS IN
900 AM EDT THU APR 19 2018

NOTE: "FAIR" INDICATES FEW OR NO CLOUDS BELOW 12,000 FEET WITH NO
SIGNIFICANT WEATHER AND/OR OBSTRUCTIONS TO VISIBILITY.

* - STATION DOES NOT REPORT WEATHER SUCH AS PRECIPITATION OR FOG.

+ - STATION NOT QUALITY CONTROLLED BY THE NATIONAL WEATHER SERVICE.
    USE DATA WITH CAUTION...ESPECIALLY DEWPOINT AND RELATIVE
    HUMIDITY OBSERVATIONS.

INZ001>003-010>013-019-020-191400-
NORTHWEST INDIANA

CITY           SKY/WX    TMP DP  RH WIND       PRES   REMARKS
GARY /AIRPORT/ MOSUNNY   39  34  81 N22       30.22R WCI  29
KNOX *+        FAIR      36  34  93 N13       30.18R WCI  27
LA PORTE +     FAIR      37  33  85 N9        30.19R WCI  31
MICHIGAN CITY+ FAIR      37  34  87 N9G18     30.20R WCI  31
MONTICELLO +   FAIR      36  33  87 N12       30.17R WCI  28
RENSSELAER +   FAIR      37  32  81 NW8       30.20R WCI  31
VALPARAISO     FAIR      39  34  82 N12       30.19R WCI  32

$$

LMZ046-743>745-191400-
SOUTHERN LAKE MICHIGAN

STATION/POSITION TIME  TEMP    WIND        PRES    WAVE
                       AIR SEA DIR/SP/G            HT
                 (UTC) (F)     (DEG/KT/KT) (MB)    (FT)
BURNS HARBOR     1240   38     350/ 16/ 20 1022.7R
MICHIGAN CITY    1240   38     340/ 20/ 22   N/A

$$

INZ004-005-014>016-021>024-191400-
NORTH CENTRAL INDIANA

CITY           SKY/WX    TMP DP  RH WIND       PRES   REMARKS
ELKHART        FAIR      36  34  93 NW9       30.16R WCI  29
GOSHEN         FAIR      36  31  82 NW14      30.15R WCI  27
LOGANSPORT +   FAIR      36  32  87 N10       30.17R WCI  28
PERU/GRISSOM   FAIR      36  36 100 N15       30.15R WCI  27
ROCHESTER +    FAIR      37  34  87 N9        30.16R WCI  31
SOUTH BEND     FAIR      36  31  82 N9        30.18R WCI  29
WARSAW +       FAIR      34  32  93 N12       30.14R WCI  25

$$

INZ006>009-017-018-025>027-191400-
NORTHEAST INDIANA

CITY           SKY/WX    TMP DP  RH WIND       PRES   REMARKS
ANGOLA *+      FAIR      34  30  86 NW10G16   30.11R WCI  26
AUBURN +       FAIR      34  32  93 NW10      30.13R WCI  26
FORT WAYNE     FAIR      37  32  82 N14       30.13R WCI  28
HUNTINGTON +   FAIR      34  32  92 N10G16    30.14R WCI  26
KENDALLVILLE + FAIR      34  29  81 N12       30.12R WCI  25

$$

INZ028-029-035-036-043>045-051>053-191400-
WEST CENTRAL INDIANA

CITY           SKY/WX    TMP DP  RH WIND       PRES   REMARKS
CRAWFORDSVL +  CLOUDY    34  32  91 N13       30.18R WCI  25
GREENCASTLE +  CLOUDY    34  32  93 N8        30.18R WCI  27
LAFAYETTE      PTSUNNY   37  32  82 N15       30.19R WCI  28
TERRE HAUTE    MIX PCPN  36  33  89 NW9       30.20R WCI  29

$$

INZ030>032-037>040-046>048-054>057-064-065-191400-
CENTRAL INDIANA

CITY           SKY/WX    TMP DP  RH WIND       PRES   REMARKS
ANDERSON       CLOUDY    36  30  80 N12G17    30.12R WCI  27
COLUMBUS       CLOUDY    37 N/A N/A NW13      30.14R WCI  29
FRANKFORT +    CLOUDY    38  34  85 N14       30.18R WCI  29
GREENWOOD *+   CLOUDY    36  32  85 NW7       30.14R WCI  31
INDIANAPOLIS   CLOUDY    37  30  75 N15       30.14R WCI  28
-EAGLE CREEK   CLOUDY    38  30  73 N12       30.14R WCI  30
KOKOMO +       CLOUDY    38  35  89 N15       30.16R WCI  29
MARION +       CLOUDY    34  32  92 N10G16    30.15R WCI  26
MT COMFORT *+  CLOUDY    34  34 100 N13       30.13R WCI  25
SHELBYVILLE    CLOUDY    38  32  79 N9        30.12R WCI  31
ZIONSVILLE +   CLOUDY    35  32  89 N13       30.14R WCI  26

$$

INZ033-034-041-042-049-050-058-059-191400-
EAST CENTRAL INDIANA

CITY           SKY/WX    TMP DP  RH WIND       PRES   REMARKS
MUNCIE         CLOUDY    36  31  82 N15       30.12R WCI  27
RICHMOND +     CLOUDY    34  32  93 N8        30.10R WCI  27

$$

INZ060-061-067>069-081>083-085>088-191400-
SOUTHWEST INDIANA

CITY           SKY/WX    TMP DP  RH WIND       PRES   REMARKS
EVANSVILLE     CLOUDY    38  29  70 NW14G25   30.24R WCI  30
HUNTINGBURG +  CLOUDY    37  29  72 NW14      30.21R WCI  28
WASHINGTON +   CLOUDY    37  29  73 NW17      30.21R WCI  27

$$

INZ062-063-066-070>080-084-089>092-191400-
SOUTH CENTRAL AND SOUTHEAST INDIANA

CITY           SKY/WX    TMP DP  RH WIND       PRES   REMARKS
BATESVILLE +   PTSUNNY   36  34  93 MISG      30.10R
BEDFORD +      CLOUDY    36  28  75 W9        30.15R WCI  29
BLOOMINGTON    CLOUDY    36  30  79 NW5       30.16R WCI  32
FRENCH LICK *+ CLOUDY    36  27  69 NW8       30.18R WCI  29
MADISON *+     CLOUDY    37  30  75 W8        30.14R WCI  31
NORTH VERNON + CLOUDY    36  30  80 NW12G20   30.15R WCI  27
SEYMOUR +      CLOUDY    39  30  70 NW13      30.15R WCI  32

$$




USA.gov is the U.S. government's official web portal to all federal, state and local government web resources and services.